GLOBALSTAR M086 [+]

Last updated on Fri Dec 29 2023 00:02:57 GMT+0000 (Coordinated Universal Time)

1 38045U 11080F 23361.94651425 -.00000089 00000+0 81735-4 0 9996 2 38045 51.9871 195.8488 0000983 136.0069 15.4726 12.62266086555718
UTC large
Height (km)
Speed (km/s)
/
Latitude / Longitude
Inclination (degrees)
Orbital Period (minutes)
Azimuth
Elevation
Range (km)
Doppler Factor

Next 0 passes for location: London (51.5072 / 0.1276)

Sorry there are no passes over London.
GLOBALSTAR M086 [+]